Total_Precipitation_Accumulation
1.54 1.47 1.46 1.36 1.33 1.33 1.32 1.43 1.62 1.43 0.97 0.75 0.71 0.70 0.68 0.72 0.82 0.79 0.71 0.82 0.96 0.99 1.08 1.17 1.25 1.34 1.66 2.38 3.43 4.17 4.11 3.49 2.80 2.49 2.67 3.12 3.62 4.10
1.54 1.57 1.53 1.44 1.38 1.38 1.38 1.35 1.38 1.49 1.26 0.82 0.76 0.78 0.80 0.80 0.90 0.84 0.81 0.93 0.98 0.95 1.00 1.07 1.16 1.28 1.41 1.71 2.35 3.36 4.02 3.97 3.41 2.92 2.83 3.07 3.35 3.83
1.45 1.48 1.47 1.42 1.42 1.39 1.37 1.29 1.22 1.30 1.35 0.89 0.73 0.76 0.85 0.90 0.94 0.91 0.90 0.91 0.91 0.91 0.97 1.06 1.13 1.22 1.35 1.54 1.83 2.46 3.37 3.93 3.97 3.55 3.29 3.28 3.33 3.44
1.55 1.48 1.44 1.46 1.51 1.46 1.41 1.30 1.19 1.15 1.26 1.10 0.80 0.78 0.87 0.95 1.01 1.04 1.04 1.02 0.97 1.02 1.04 1.08 1.14 1.17 1.30 1.47 1.68 1.98 2.58 3.37 3.90 3.90 3.57 3.34 3.19 3.25
1.81 1.77 1.68 1.63 1.67 1.63 1.54 1.38 1.23 1.14 1.15 1.17 0.96 0.84 0.90 0.99 1.12 1.14 1.13 1.12 1.05 1.11 1.13 1.17 1.20 1.19 1.24 1.36 1.55 1.74 2.00 2.42 3.01 3.60 3.83 3.63 3.27 3.15
1.99 1.93 1.94 1.90 1.84 1.79 1.76 1.54 1.33 1.26 1.21 1.24 1.12 0.96 0.94 1.01 1.27 1.38 1.37 1.28 1.20 1.10 1.16 1.19 1.24 1.24 1.23 1.22 1.31 1.46 1.72 2.10 2.52 3.11 3.70 3.82 3.46 3.21
1.78 1.72 1.79 1.94 2.00 2.00 1.99 1.81 1.63 1.58 1.49 1.46 1.33 1.17 1.08 1.18 1.39 1.47 1.53 1.46 1.45 1.28 1.15 1.10 1.08 1.09 1.11 1.18 1.26 1.35 1.53 1.78 2.07 2.54 3.15 3.65 3.70 3.51
1.62 1.54 1.53 1.66 1.73 1.78 1.90 1.91 1.93 1.97 1.92 1.77 1.59 1.42 1.22 1.17 1.30 1.58 1.69 1.78 1.84 1.51 1.32 1.24 1.10 1.12 1.13 1.13 1.23 1.26 1.42 1.65 1.89 2.17 2.58 3.10 3.55 3.69
1.38 1.36 1.35 1.37 1.47 1.37 1.50 1.63 1.71 1.88 2.01 1.97 1.90 1.59 1.35 1.27 1.45 1.69 1.77 1.86 1.81 1.62 1.59 1.67 1.42 1.29 1.23 1.24 1.31 1.27 1.37 1.56 1.76 1.98 2.24 2.59 3.08 3.54
1.36 1.25 1.19 1.19 1.34 1.40 1.43 1.42 1.36 1.46 1.71 1.85 1.94 1.75 1.53 1.51 1.74 1.97 2.10 2.12 1.96 1.84 1.79 1.95 1.65 1.46 1.37 1.33 1.34 1.28 1.31 1.42 1.60 1.77 1.99 2.22 2.57 3.03
1.46 1.38 1.27 1.14 1.40 1.53 1.41 1.32 1.20 1.25 1.41 1.68 1.85 1.86 1.86 1.93 2.08 2.33 2.47 2.53 2.43 2.09 1.91 2.00 1.85 1.63 1.58 1.58 1.51 1.42 1.30 1.31 1.43 1.59 1.71 1.89 2.13 2.51
1.47 1.43 1.53 1.44 1.52 1.47 1.30 1.31 1.33 1.19 1.15 1.23 1.32 1.41 1.42 1.48 1.77 2.00 2.20 2.44 2.43 2.40 2.02 1.98 2.01 1.96 2.16 1.83 1.53 1.31 1.19 1.22 1.29 1.38 1.45 1.57 1.74 1.87
1.50 1.43 1.43 1.59 1.52 1.43 1.35 1.30 1.41 1.25 1.12 1.17 1.20 1.20 1.23 1.32 1.42 1.60 1.85 2.10 2.33 2.34 1.99 2.10 2.35 2.15 2.23 2.07 1.73 1.42 1.15 1.04 1.07 1.22 1.32 1.42 1.51 1.56
1.44 1.28 1.30 1.49 1.48 1.47 1.37 1.41 1.46 1.38 1.25 1.23 1.17 1.12 1.15 1.26 1.34 1.44 1.60 1.76 1.89 1.99 1.85 2.02 2.51 2.36 2.27 2.01 1.78 1.62 1.35 1.13 1.02 1.06 1.12 1.37 1.45 1.51
1.53 1.56 1.52 1.52 1.46 1.34 1.32 1.37 1.36 1.30 1.34 1.30 1.16 1.06 1.05 1.16 1.26 1.37 1.44 1.55 1.65 1.74 1.83 1.90 2.20 2.35 2.37 2.19 1.76 1.58 1.58 1.45 1.17 1.08 1.07 1.12 1.20 1.33
1.64 1.63 1.62 1.58 1.47 1.39 1.39 1.28 1.17 1.23 1.32 1.26 1.16 1.10 1.06 1.13 1.23 1.32 1.43 1.49 1.66 1.73 1.78 1.87 2.04 2.36 2.43 2.01 1.80 1.64 1.46 1.60 1.42 1.12 1.04 1.07 1.12 1.13
1.66 1.65 1.57 1.50 1.48 1.37 1.28 1.21 1.18 1.22 1.25 1.16 1.16 1.20 1.18 1.19 1.22 1.23 1.36 1.46 1.61 1.62 1.73 1.91 1.99 2.17 2.29 2.19 2.06 1.71 1.43 1.33 1.29 1.15 1.09 1.19 1.26 1.23
1.64 1.53 1.36 1.28 1.27 1.23 1.21 1.17 1.16 1.16 1.10 1.10 1.14 1.18 1.21 1.21 1.22 1.22 1.29 1.43 1.51 1.48 1.58 1.78 1.99 2.27 2.43 2.44 2.24 1.85 1.54 1.37 1.30 1.19 1.08 1.19 1.41 1.41
1.39 1.23 1.11 1.13 1.13 1.08 1.06 1.05 1.02 0.99 1.01 1.08 1.12 1.13 1.16 1.20 1.23 1.26 1.29 1.37 1.40 1.41 1.49 1.65 1.98 2.32 2.45 2.45 2.49 2.13 1.82 1.58 1.48 1.44 1.27 1.18 1.33 1.39
1.16 1.12 1.08 1.04 1.05 1.03 0.99 0.95 0.93 0.94 1.02 1.09 1.08 1.05 1.08 1.16 1.19 1.20 1.23 1.32 1.40 1.44 1.49 1.57 1.88 2.24 2.45 2.33 2.37 2.35 2.24 1.91 1.67 1.65 1.49 1.29 1.25 1.42
1.13 1.06 1.03 1.03 1.01 0.98 0.96 0.95 0.96 0.98 0.99 1.05 1.06 1.02 1.03 1.11 1.14 1.10 1.14 1.27 1.38 1.46 1.50 1.51 1.67 2.00 2.19 2.13 2.10 2.09 2.22 2.28 1.95 1.75 1.61 1.58 1.56 1.64
1.09 1.09 1.03 1.03 1.02 1.00 0.99 1.00 1.00 0.97 0.95 0.97 0.97 0.98 0.99 1.05 1.09 1.07 1.12 1.21 1.27 1.32 1.40 1.42 1.50 1.85 2.16 2.26 2.11 1.97 2.08 2.27 2.31 2.03 1.77 1.74 1.98 2.28
1.14 1.13 1.09 1.04 0.99 0.97 0.96 0.96 0.95 0.92 0.88 0.89 0.90 0.90 0.93 0.99 0.99 1.02 1.05 1.10 1.15 1.19 1.28 1.40 1.49 1.74 2.06 2.20 2.16 1.99 1.96 2.05 2.16 2.19 2.20 1.93 1.58 1.48